{"data":{"norad_id":59089,"intl_designator":"2024-041R","name":"STARLINK-31307","alt_names":[],"object_type":"PAYLOAD","status":"ACTIVE","operator":null,"country":"US","launch_date":"2024-02-29","launch_site_code":"AFETR","launch_vehicle":null,"mission":null,"orbit_class":"UNKNOWN","rcs_meters":null,"size_class":null,"mass_kg":null,"dimensions":null,"purposes":["comms"],"wikipedia_slug":null,"has_3d_model":false,"image_url":null,"decayed_at":null,"tle_current":{"epoch":"2026-09-20T08:17:31.252704Z","epoch_age_seconds":172204,"freshness":"FRESH","line1":"1 59089U 24041R   26263.34550061  .00000483  00000+0  27069-4 0  9997","line2":"2 59089  43.0044 291.2220 0001319 266.4905  93.5796 15.27576774144090","mean_motion":15.27576774,"eccentricity":0.0001319,"inclination_deg":43.0044,"raan_deg":291.222,"arg_perigee_deg":266.4905,"mean_anomaly_deg":93.5796,"bstar":2.7069e-5,"rev_number":14409,"period_min":94.266947790082,"perigee_km":482.153764141,"apogee_km":483.9637475814,"semimajor_km":6861.1957558612,"source":"CELESTRAK","updated_at":"2026-09-21T09:00:34.036510Z"}}}